Simultaneous Nadir Overpasses (SNOs) Predictions

Prediction of SNOs between NOAA-20 and AQUA Satellite Orbit:

Table of predicted SNOs for the next 14.0 days since TLE Epoch: 7/2/2022
Index Date (NOAA-20) Time (NOAA-20) Lat,Lon (NOAA-20) SZA (NOAA-20 ) Date (AQUA) Time (AQUA) Lat,Lon (AQUA) SZA (AQUA ) Distance(km) Time Diff (sec)
1 07/02/2022 12:03:30 -78.45, 68.68 108.37 07/02/2022 12:03:45 -78.44, 68.62 108.37 1.43 15
2 07/02/2022 12:54:04 78.79,-121.88 71.12 07/02/2022 12:53:01 78.80,-121.79 71.15 2.18 63
3 07/05/2022 03:29:38 78.40, 16.87 71.95 07/05/2022 03:30:15 78.39, 16.77 71.94 2.34 37
4 07/05/2022 04:20:12 -78.84,-173.09 108.72 07/05/2022 04:19:31 -78.84,-173.18 108.67 2.12 41
5 07/07/2022 18:55:52 -78.22, -35.66 107.51 07/07/2022 18:56:50 -78.22, -35.73 107.55 1.50 58
6 07/07/2022 19:46:27 78.57, 133.66 71.98 07/07/2022 19:46:07 78.58, 133.75 71.98 2.04 20
7 07/10/2022 11:12:39 -78.47, 81.54 107.55 07/10/2022 11:12:40 -78.48, 81.63 107.57 1.99 1
8 07/10/2022 12:01:25 81.30, -73.53 65.74 07/10/2022 12:00:12 81.70, -74.05 65.94 45.02 73
9 07/13/2022 02:38:44 78.57, 30.57 72.68 07/13/2022 02:39:07 78.56, 30.46 72.69 2.43 23
10 07/13/2022 03:29:19 -78.97,-159.53 107.94 07/13/2022 03:28:24 -78.97,-159.62 107.88 1.96 55
11 07/15/2022 18:05:00 -78.28, -22.67 106.48 07/15/2022 18:05:43 -78.28, -22.59 106.53 1.87 43



Historial Predications of SNOs between NOAA-20 and AQUA
